Weather History for LIRN - January, 2014

Change the Weather History Date:

Tuesday, January 28, 2014

  Actual Average Record
Temperature  
Mean Temperature 48 °F -  
Max Temperature 54 °F 56 °F 62 °F (2002)
Min Temperature 39 °F 40 °F 28 °F (2000)
Degree Days  
Heating Degree Days 17    
Moisture  
Dew Point 40 °F    
Average Humidity 73    
Maximum Humidity 93    
Minimum Humidity 49    
Precipitation  
Precipitation 0.01 in 0.13 in - ()
Sea Level Pressure  
Sea Level Pressure 29.42 in    
Wind  
Wind Speed 6 mph ()    
Max Wind Speed 17 mph    
Max Gust Speed -    
Visibility 6.8 miles    
Events Rain    
Averages and records for this station are not official NWS values.
T = Trace of Precipitation, MM = Missing Value Source: Averaged Metar Reports

Daily Weather History Graph

Daily Weather History Graph

Search for Another Location

Airport or City:

Trip Planner

Search our weather history database for the weather conditions in past years. The results will help you decide how hot, cold, wet, or windy it might be!

Date:

Astronomy

Jan. 28, 2014 Rise Set
Actual Time 7:17 AM CET 5:14 PM CET
Civil Twilight 6:47 AM CET 5:44 PM CET
Nautical Twilight 6:14 AM CET 6:17 PM CET
Astronomical Twilight 5:42 AM CET 6:49 PM CET
Moon 4:42 AM CET (1/28) 2:45 PM CET (1/28)
Length of Visible Light 10h 56m
Length of Day
9h 57m
Waning Crescent, 9% of the Moon is Illuminated
Jan 28
Waning Crescent
Jan 30
New
Feb 6
First Quarter
Feb 15
Full
Feb 22
Last Quarter

Hourly Weather History & Observations

Time (CET) Temp. Windchill Dew Point Humidity Pressure Visibility Wind Dir Wind Speed Gust Speed Precip Events Conditions
12:20 AM 50.0 °F - 42.8 °F 76% 29.42 in 6.2 mi South 5.8 mph - N/A   Mostly Cloudy
12:50 AM 50.0 °F - 42.8 °F 76% 29.39 in 6.2 mi South 5.8 mph - N/A   Mostly Cloudy
1:00 AM 49 °F - 42 °F 71% 29.40 in 3 mi South 4.6 mph - -   Mostly Cloudy
1:20 AM 48.2 °F - 42.8 °F 82% 29.39 in 6.2 mi SSW 5.8 mph - N/A   Mostly Cloudy
1:50 AM 50.0 °F - 42.8 °F 76% 29.36 in 6.2 mi South 6.9 mph - N/A   Mostly Cloudy
2:20 AM 50.0 °F - 42.8 °F 76% 29.36 in 4.3 mi South 6.9 mph - N/A Rain Light Rain
2:50 AM 48.2 °F - 42.8 °F 82% 29.39 in 3.1 mi NW 5.8 mph - N/A Rain Rain
3:20 AM 48.2 °F - 42.8 °F 82% 29.36 in 6.2 mi ENE 3.5 mph - N/A   Mostly Cloudy
3:50 AM 46.4 °F 45.2 °F 42.8 °F 87% 29.36 in 6.2 mi North 3.5 mph - N/A   Mostly Cloudy
4:00 AM 46 °F - 42 °F 83% 29.37 in 3 mi NE 2.3 mph - -   Mostly Cloudy
4:20 AM 46.4 °F - 42.8 °F 87% 29.36 in 4.3 mi Variable 2.3 mph - N/A Rain Rain
4:50 AM 46.4 °F 44.3 °F 42.8 °F 87% 29.36 in 4.3 mi North 4.6 mph - N/A Rain Light Rain
5:20 AM 44.6 °F 42.2 °F 42.8 °F 93% 29.36 in 4.3 mi NW 4.6 mph - N/A   Mostly Cloudy
5:50 AM 44.6 °F 43.1 °F 42.8 °F 93% 29.36 in 4.3 mi West 3.5 mph - N/A   Mostly Cloudy
6:20 AM 46.4 °F 44.3 °F 42.8 °F 87% 29.36 in 4.3 mi WSW 4.6 mph - N/A   Mostly Cloudy
6:50 AM 44.6 °F 42.2 °F 42.8 °F 93% 29.36 in 6.2 mi South 4.6 mph - N/A   Scattered Clouds
7:00 AM 46 °F - 43 °F 86% 29.38 in 9 mi SSW 4.6 mph - -   Partly Cloudy
7:20 AM 44.6 °F 43.1 °F 42.8 °F 93% 29.36 in 6.2 mi South 3.5 mph - N/A   Partly Cloudy
7:50 AM 46.4 °F - 42.8 °F 87% 29.39 in - Variable 2.3 mph - N/A   Clear
8:20 AM 46.4 °F 45.2 °F 42.8 °F 87% 29.39 in - NNE 3.5 mph - N/A   Clear
8:50 AM 46.4 °F - 42.8 °F 87% 29.39 in 6.2 mi Variable 2.3 mph - N/A   Scattered Clouds
9:20 AM 46.4 °F - 44.6 °F 93% 29.39 in 6.2 mi Variable 2.3 mph - N/A   Partly Cloudy
9:50 AM 50.0 °F - 46.4 °F 87% 29.39 in - Variable 2.3 mph - N/A   Clear
10:00 AM 50 °F - 46 °F 80% 29.42 in 9 mi North 1.2 mph - -   Scattered Clouds
10:20 AM 51.8 °F - 46.4 °F 82% 29.39 in 6.2 mi Variable 1.2 mph - N/A   Partly Cloudy
10:50 AM 51.8 °F - 44.6 °F 76% 29.42 in 6.2 mi WNW 4.6 mph - N/A   Scattered Clouds
11:20 AM 53.6 °F - 42.8 °F 67% 29.42 in 6.2 mi NW 3.5 mph - N/A   Scattered Clouds
11:50 AM 51.8 °F - 41.0 °F 67% 29.42 in 6.2 mi NW 6.9 mph - N/A   Scattered Clouds
12:20 PM 53.6 °F - 41.0 °F 62% 29.42 in 6.2 mi WNW 9.2 mph - N/A   Scattered Clouds
12:50 PM 53.6 °F - 41.0 °F 62% 29.39 in 6.2 mi West 9.2 mph - N/A   Scattered Clouds
1:00 PM 54 °F - 41 °F 51% 29.41 in 9 mi WNW 9.2 mph - -   Partly Cloudy
1:20 PM 55.4 °F - 41.0 °F 58% 29.39 in 6.2 mi WNW 12.7 mph - N/A   Partly Cloudy
1:50 PM 53.6 °F - 37.4 °F 54% 29.39 in 6.2 mi West 17.3 mph - N/A   Partly Cloudy
2:20 PM 53.6 °F - 37.4 °F 54% 29.39 in 6.2 mi WNW 17.3 mph - N/A   Partly Cloudy
2:50 PM 53.6 °F - 37.4 °F 54% 29.39 in 6.2 mi NW 15.0 mph - N/A   Partly Cloudy
3:20 PM 53.6 °F - 39.2 °F 58% 29.42 in 6.2 mi WNW 16.1 mph - N/A   Partly Cloudy
3:50 PM 53.6 °F - 39.2 °F 58% 29.42 in - WNW 15.0 mph - N/A   Clear
4:00 PM 53 °F - 39 °F 49% 29.43 in 19 mi WNW 12.7 mph - -  
4:20 PM 51.8 °F - 39.2 °F 62% 29.42 in - WNW 11.5 mph - N/A   Clear
4:50 PM 51.8 °F - 37.4 °F 58% 29.42 in - West 11.5 mph - N/A   Clear
5:20 PM 50.0 °F - 35.6 °F 58% 29.44 in - West 12.7 mph - N/A   Clear
5:50 PM 50.0 °F - 37.4 °F 62% 29.44 in - West 9.2 mph - N/A   Clear
6:20 PM 50.0 °F - 37.4 °F 62% 29.44 in - West 10.4 mph - N/A   Clear
6:50 PM 48.2 °F - 37.4 °F 66% 29.47 in - WNW 9.2 mph - N/A   Clear
7:00 PM 49 °F - 36 °F 51% 29.48 in 19 mi WNW 9.2 mph - -  
7:20 PM 48.2 °F - 35.6 °F 62% 29.47 in - West 5.8 mph - N/A   Clear
7:50 PM 48.2 °F - 35.6 °F 62% 29.47 in - Variable 3.5 mph - N/A   Clear
8:20 PM 46.4 °F 44.3 °F 37.4 °F 71% 29.47 in - West 4.6 mph - N/A   Clear
8:50 PM 44.6 °F - 35.6 °F 71% 29.50 in - Variable 2.3 mph - N/A   Clear
9:20 PM 44.6 °F 43.1 °F 35.6 °F 71% 29.50 in - West 3.5 mph - N/A   Clear
9:50 PM 42.8 °F 40.1 °F 35.6 °F 76% 29.50 in - West 4.6 mph - N/A   Clear
10:00 PM 44 °F - 36 °F 64% 29.53 in 16 mi West 3.5 mph - -  
10:20 PM 44.6 °F 43.1 °F 35.6 °F 71% 29.50 in - West 3.5 mph - N/A   Clear
10:50 PM 44.6 °F - 33.8 °F 66% 29.53 in - SW 2.3 mph - N/A   Clear
11:20 PM 42.8 °F 41.1 °F 35.6 °F 76% 29.53 in - West 3.5 mph - N/A   Clear
11:50 PM 39.2 °F 35.0 °F 33.8 °F 81% 29.56 in 6.2 mi WSW 5.8 mph - N/A   Scattered Clouds